Regional Weather Roundup
Issued by NWS

Home | Current Version | Previous Version | Text Only | Print | Product List | Glossary On
Versions: 1 2 3 4 5 6 7 8 9 10 11 12 13 14 15 16 17 18 19 20 21 22 23 24 25 26 27 28 29 30 31 32 33 34 35 36 37 38 39 40 41 42 43 44 45 46 47 48 49 50
000
ASUS43 KMKX 050100
RWRWI

WISCONSIN REGIONAL WEATHER ROUNDUP
NATIONAL WEATHER SERVICE MILWAUKEE/SULLIVAN WI
800 PM CDT MON MAY 04 2015

NOTE: "FAIR" INDICATES FEW OR NO CLOUDS BELOW 12,000 FEET WITH NO
SIGNIFICANT WEATHER AND/OR OBSTRUCTIONS TO VISIBILITY.

WIZ001-002-006>008-014>016-023>028-050200-
NORTHWEST WISCONSIN

CITY           SKY/WX    TMP DP  RH WIND       PRES   REMARKS
SUPERIOR ARPT  PTCLDY    65  19  17 CALM      30.19R
ASHLAND        PTCLDY    60  27  28 E3        30.20S
HAYWARD        PTCLDY    62  22  21 N3        30.19S
SIREN          PTCLDY    65  20  18 NE3       30.18S
CUMBERLAND     MOCLDY    64  27  24 CALM      30.17F
RICE LAKE      MOCLDY    65  24  20 N5        30.18F
CHETEK         MOCLDY    64  35  33 N3        30.17F
LADYSMITH      MOCLDY    64  27  24 N5        30.19S
EAU CLAIRE     CLOUDY    64  33  31 CALM      30.16S
MENOMONIE      CLOUDY    66  28  23 CALM      30.17S
NEW RICHMOND   MOCLDY    67  27  22 CALM      30.17S
OSCEOLA        MOCLDY    66  27  22 N3        30.19S
$$

WIZ003>005-009-010-017-018-050200-
NORTH CENTRAL WISCONSIN

CITY           SKY/WX    TMP DP  RH WIND       PRES   REMARKS
MANITOWISH WTR PTCLDY    58  20  22 N3        30.22R
ARBOR VITAE    PTCLDY    59  19  21 N5        30.21S
WOODRUFF       PTCLDY    59  19  21 N5        30.21S
RHINELANDER    MOCLDY    61  23  23 N3        30.20R
EAGLE RIVER    PTCLDY    59  18  20 N3        30.20S
LAND O LAKES   PTCLDY    59  24  26 N7        30.22R
PHILLIPS       PTCLDY    58  23  26 NE6       30.20R
TOMAHAWK       MOCLDY    62  24  23 CALM      30.20R
MEDFORD        MOCLDY    63  31  30 CALM      30.17S
MERRILL        CLOUDY    64  31  29 N5        30.18R
$$

WIZ029-030-035-036-043>047-050200-
CENTRAL WISCONSIN

CITY           SKY/WX    TMP DP  RH WIND       PRES   REMARKS
WAUSAU         MOCLDY    65  29  25 N5        30.16R
MOSINEE        NOT AVBL
MARSHFIELD     CLOUDY    65  38  36 CALM      30.16S
STEVENS POINT  CLOUDY    64  34  33 CALM      30.16S
WAUPACA        MOCLDY    69  35  28 N3        30.15S
WAUTOMA        NOT AVBL
WISC RAPIDS    CLOUDY    61  38  42 N3        30.16S
CAMP DOUGLAS   NOT AVBL
$$

WIZ011>013-019>022-031-037>040-048>050-050200-
NORTHEAST WISCONSIN

CITY           SKY/WX    TMP DP  RH WIND       PRES   REMARKS
ANTIGO         CLOUDY    62  44  52 CALM      30.18F
SHAWANO        MOCLDY    60  42  50 SE9       30.19R
OCONTO         MOCLDY    55  42  61 SE5       30.20R
STURGEON BAY   MOCLDY    52  36  54 E8        30.24R
GREEN BAY      MOCLDY    58  40  51 E7        30.20R
MANITOWOC      NOT AVBL
APPLETON       MOCLDY    61  36  39 SE10      30.18R
CLINTONVILLE   MOCLDY    59  39  47 E8        30.18R
OSHKOSH        CLOUDY    59  42  53 E13       30.17R
$$

WIZ032>034-041-042-053>061-050200-
SOUTHWEST WISCONSIN

CITY           SKY/WX    TMP DP  RH WIND       PRES   REMARKS
LA CROSSE      CLOUDY    66  42  41 N9        30.12F
SPARTA         CLOUDY    66  33  29 N5        30.15S
VIROQUA        CLOUDY    64  44  49 NE6       30.14S
BOSCOBEL       CLOUDY    70  49  47 CALM      30.11S
PRAIRIE DU CHI CLOUDY    70  45  40 N3        30.10S
PLATTEVILLE    CLOUDY    68  56  65 E8        30.11S
$$

WIZ056-057-062-063-064-067-068-050200-
SOUTH CENTRAL WISCONSIN

CITY           SKY/WX    TMP DP  RH WIND       PRES   REMARKS
REEDSBURG      MOCLDY    69  43  39 NE3       30.12S
BARABOO/DELLS  MOCLDY    67  44  43 CALM      30.13R
LONE ROCK      NOT AVBL
MINERAL POINT  CLOUDY    68  52  56 E3        30.12S
MADISON        MOCLDY    66  47  50 SE13      30.14R
MIDDLETON      MOCLDY    69  53  56 E9        30.14R
WATERTOWN      MOCLDY    61  37  40 E9        30.16R
MONROE         CLOUDY    68  57  68 NE6       30.13R
JANESVILLE     MOCLDY    64  45  48 E14       30.15R
$$

WIZ051-052-058>065-066-070>072-050200-
SOUTHEAST WISCONSIN

CITY           SKY/WX    TMP DP  RH WIND       PRES   REMARKS
MILWAUKEE      MOCLDY    51  37  58 N6        30.18R
WAUKESHA       CLEAR     57  36  44 NE9       30.19R
MILWAUKEE/TIMM NOT AVBL
RACINE         PTCLDY    51  37  58 NE7       30.19R
BURLINGTON     MOCLDY    58  36  44 E5        30.17R
KENOSHA        MOCLDY    54  39  57 E6        30.18R
FOND DU LAC    CLOUDY    59  38  45 E8        30.17R
SHEBOYGAN      CLOUDY    51  38  60 NE6       30.20R
WEST BEND      MOCLDY    55  36  47 E7        30.18S
JUNEAU         MOCLDY    61  39  44 E9        30.18R
$$

LSZ147-162-050200-
LAKE SUPERIOR

STATION/POSITION TIME  TEMP    WIND        PRES    WAVE
                       AIR SEA DIR/SP/G            HT/PER
                 (UTC) (F)     (DEG/KT/KT) (MB)    (FT/S)
W MID LAKE BUOY  2350   40 36  190/  8/  8 1023.0R   1
DEVILS ISLAND    0000   59     170/  6/  8 1022.6R
PORT WING        0000   62      40/  2/  3 1022.4S
SAXON HARBOR     0040   58        CALM     1022.4S
$$

LMZ867-665-643>646-050200-
LAKE MICHIGAN

STATION/POSITION TIME  TEMP    WIND        PRES    WAVE
                       AIR SEA DIR/SP/G            HT/PER
                 (UTC) (F)     (DEG/KT/KT) (MB)    (FT/S)
CHAMBERS ISLAND  0000   57      80/  7/ 10 1022.7R
NORTHPORT PIER   0000   50     150/  6/  7 1022.7R
SISTER BAY       2332   57     110/  9/ 14   N/A
KEWAUNEE LAKESHO 0000   48      CALM  /  3 1022.0R
SHEBOYGAN LAKESH 0000   50      20/ 11/ 13 1022.4R
PORT WASHINGTON  0040   55     360/  3/  7 1022.7R
ATWATER BUOY     0000   49     350/  6/  8 1023.0S
MILWAUKEE LAKESH 0000   53      30/  8/  9   N/A
KENOSHA   LAKESH 0000   49     360/  4/  5 1021.7R
$$

TC  - TEMPERATURE IN CELSIUS
VSB - VISIBILITY IN STATUTE MILES
WCI - WIND CHILL INDEX
HX  - HEAT INDEX



USA.gov is the U.S. government's official web portal to all federal, state and local government web resources and services.